When you browse on this site, cookies collect data to enhance your experience and personalize the content and advertising you see.
Visit our Privacy Policy to learn more. By continuing to use the site, you agree to this use of cookies and data.
  • In Hungary
  • List of Countries
  • For 7 days
  • Water Temperature
  • Satellite Maps
  • Weather Map
  • News
  • Weather Widgets
  • user-avatar
    Login

    Hourly Weather Ali Sabieh

    Today, 18 November, Sunday

    Time Temperature Precipitation Wind Pressure Humidity
    00:00 +24°C° 0 mm 2 mps 700 mmHg 66%
    01:00 +24°C° 0 mm 2 mps 699 mmHg 68%
    02:00 +23°C° 0 mm 2 mps 699 mmHg 70%
    03:00 +23°C° 0 mm 2 mps 699 mmHg 72%
    04:00 +23°C° 0 mm 2 mps 699 mmHg 74%
    05:00 +21°C° 0 mm 2 mps 699 mmHg 76%
    06:00 +21°C° 0 mm 2 mps 699 mmHg 77%
    07:00 +23°C° 0 mm 2 mps 700 mmHg 70%
    08:00 +24°C° 0 mm 2 mps 700 mmHg 64%
    09:00 +26°C° 0 mm 3 mps 700 mmHg 55%
    10:00 +27°C° 0 mm 3 mps 700 mmHg 50%
    11:00 +28°C° 0 mm 4 mps 700 mmHg 44%
    12:00 +29°C° 0 mm 4 mps 700 mmHg 38%
    13:00 +30°C° 0 mm 4 mps 700 mmHg 37%
    14:00 +30°C° 0 mm 5 mps 699 mmHg 36%
    15:00 +32°C° 0 mm 5 mps 699 mmHg 34%
    16:00 +30°C° 0 mm 5 mps 699 mmHg 38%
    17:00 +29°C° 0 mm 5 mps 698 mmHg 42%
    18:00 +28°C° 0 mm 5 mps 698 mmHg 46%
    19:00 +27°C° 0 mm 4 mps 698 mmHg 50%
    20:00 +26°C° 0 mm 4 mps 699 mmHg 54%
    21:00 +26°C° 0 mm 3 mps 699 mmHg 58%
    22:00 +25°C° 0 mm 3 mps 699 mmHg 60%
    23:00 +25°C° 0 mm 3 mps 699 mmHg 63%

    Tomorrow, 19 November, Monday

    Time Temperature Precipitation Wind Pressure Humidity
    00:00 +24°C° 0 mm 3 mps 699 mmHg 66%
    01:00 +24°C° 0 mm 2 mps 699 mmHg 68%
    02:00 +23°C° 0 mm 2 mps 698 mmHg 70%
    03:00 +23°C° 0 mm 2 mps 698 mmHg 72%
    04:00 +23°C° 0 mm 2 mps 698 mmHg 74%
    05:00 +21°C° 0 mm 2 mps 699 mmHg 76%
    06:00 +21°C° 0 mm 2 mps 699 mmHg 77%
    07:00 +22°C° 0 mm 3 mps 699 mmHg 70%
    08:00 +25°C° 0 mm 3 mps 700 mmHg 62%
    09:00 +26°C° 0 mm 4 mps 700 mmHg 55%
    10:00 +27°C° 0 mm 5 mps 700 mmHg 49%
    11:00 +28°C° 0 mm 5 mps 700 mmHg 43%
    12:00 +30°C° 0 mm 6 mps 700 mmHg 37%
    13:00 +30°C° 0 mm 6 mps 699 mmHg 37%
    14:00 +30°C° 0 mm 7 mps 699 mmHg 36%
    15:00 +32°C° 0 mm 7 mps 699 mmHg 36%
    16:00 +29°C° 0 mm 7 mps 698 mmHg 40%
    17:00 +28°C° 0 mm 6 mps 698 mmHg 44%
    18:00 +27°C° 0 mm 6 mps 698 mmHg 49%
    19:00 +27°C° 0 mm 5 mps 699 mmHg 51%
    20:00 +26°C° 0 mm 5 mps 699 mmHg 53%
    21:00 +26°C° 0 mm 4 mps 700 mmHg 56%
    22:00 +25°C° 0 mm 3 mps 699 mmHg 57%
    23:00 +25°C° 0 mm 3 mps 699 mmHg 58%

    Day after tomorrow, 20 November, Tuesday

    Time Temperature Precipitation Wind Pressure Humidity
    00:00 +24°C° 0 mm 3 mps 699 mmHg 60%
    01:00 +24°C° 0 mm 2 mps 699 mmHg 62%
    02:00 +23°C° 0 mm 2 mps 698 mmHg 64%
    03:00 +23°C° 0 mm 2 mps 698 mmHg 67%
    04:00 +23°C° 0 mm 2 mps 698 mmHg 69%
    05:00 +21°C° 0 mm 2 mps 698 mmHg 72%
    06:00 +21°C° 0 mm 2 mps 698 mmHg 75%
    07:00 +22°C° 0 mm 3 mps 699 mmHg 69%
    08:00 +24°C° 0 mm 3 mps 700 mmHg 63%
    09:00 +25°C° 0 mm 4 mps 701 mmHg 57%
    10:00 +27°C° 0 mm 5 mps 701 mmHg 50%
    11:00 +28°C° 0 mm 5 mps 700 mmHg 44%
    12:00 +29°C° 0 mm 6 mps 700 mmHg 38%
    13:00 +30°C° 0 mm 6 mps 700 mmHg 36%
    14:00 +30°C° 0 mm 6 mps 699 mmHg 34%
    15:00 +32°C° 0 mm 6 mps 699 mmHg 32%
    16:00 +30°C° 0 mm 6 mps 699 mmHg 36%
    17:00 +29°C° 0 mm 6 mps 699 mmHg 40%
    18:00 +28°C° 0 mm 5 mps 699 mmHg 44%
    19:00 +27°C° 0 mm 5 mps 699 mmHg 47%
    20:00 +26°C° 0 mm 4 mps 700 mmHg 50%
    21:00 +26°C° 0 mm 3 mps 700 mmHg 53%
    22:00 +25°C° 0 mm 3 mps 700 mmHg 55%
    23:00 +25°C° 0 mm 3 mps 700 mmHg 57%

    21 November, Wednesday

    Time Temperature Precipitation Wind Pressure Humidity
    00:00 +25°C° 0 mm 2 mps 699 mmHg 58%
    01:00 +24°C° 0 mm 2 mps 699 mmHg 61%
    02:00 +24°C° 0 mm 2 mps 699 mmHg 63%
    03:00 +23°C° 0 mm 2 mps 698 mmHg 66%
    04:00 +23°C° 0 mm 2 mps 698 mmHg 68%
    05:00 +23°C° 0 mm 2 mps 699 mmHg 70%
    06:00 +21°C° 0 mm 2 mps 699 mmHg 73%
    07:00 +23°C° 0 mm 2 mps 699 mmHg 66%
    08:00 +24°C° 0 mm 3 mps 700 mmHg 60%
    09:00 +26°C° 0 mm 3 mps 701 mmHg 53%
    10:00 +27°C° 0 mm 4 mps 701 mmHg 48%
    11:00 +28°C° 0 mm 5 mps 700 mmHg 42%
    12:00 +30°C° 0 mm 5 mps 700 mmHg 37%
    13:00 +30°C° 0 mm 6 mps 700 mmHg 35%
    14:00 +30°C° 0 mm 6 mps 699 mmHg 34%
    15:00 +32°C° 0 mm 7 mps 698 mmHg 32%
    16:00 +30°C° 0 mm 7 mps 698 mmHg 35%
    17:00 +29°C° 0 mm 6 mps 699 mmHg 38%
    18:00 +28°C° 0 mm 6 mps 699 mmHg 41%
    19:00 +27°C° 0 mm 5 mps 699 mmHg 44%
    20:00 +26°C° 0 mm 4 mps 700 mmHg 47%
    21:00 +26°C° 0 mm 4 mps 700 mmHg 51%
    22:00 +25°C° 0 mm 3 mps 700 mmHg 54%
    23:00 +25°C° 0 mm 3 mps 700 mmHg 58%

    22 November, Thursday

    Time Temperature Precipitation Wind Pressure Humidity
    00:00 +24°C° 0 mm 2 mps 699 mmHg 61%
    01:00 +24°C° 0 mm 2 mps 699 mmHg 64%
    02:00 +23°C° 0 mm 2 mps 698 mmHg 67%
    03:00 +23°C° 0 mm 2 mps 698 mmHg 70%
    04:00 +21°C° 0 mm 2 mps 698 mmHg 73%
    05:00 +21°C° 0 mm 2 mps 699 mmHg 75%
    06:00 +21°C° 0 mm 2 mps 699 mmHg 78%
    07:00 +23°C° 0 mm 2 mps 699 mmHg 71%
    08:00 +24°C° 0 mm 3 mps 700 mmHg 64%
    09:00 +25°C° 0 mm 4 mps 701 mmHg 57%
    10:00 +26°C° 0 mm 4 mps 700 mmHg 50%
    11:00 +28°C° 0 mm 5 mps 700 mmHg 43%
    12:00 +29°C° 0 mm 5 mps 700 mmHg 37%
    13:00 +30°C° 0 mm 6 mps 699 mmHg 35%
    14:00 +30°C° 0 mm 6 mps 698 mmHg 33%
    15:00 +32°C° 0 mm 7 mps 698 mmHg 32%
    16:00 +29°C° 0 mm 7 mps 698 mmHg 36%
    17:00 +28°C° 0 mm 7 mps 698 mmHg 40%
    18:00 +27°C° 0 mm 7 mps 699 mmHg 44%
    19:00 +26°C° 0 mm 6 mps 699 mmHg 49%
    20:00 +26°C° 0 mm 6 mps 699 mmHg 54%
    21:00 +25°C° 0 mm 5 mps 700 mmHg 59%
    22:00 +23°C° 0 mm 5 mps 699 mmHg 63%
    23:00 +23°C° 0 mm 4 mps 699 mmHg 66%

    23 November, Friday

    Time Temperature Precipitation Wind Pressure Humidity
    00:00 +22°C° 0 mm 4 mps 699 mmHg 70%
    01:00 +22°C° 0 mm 4 mps 698 mmHg 72%
    02:00 +22°C° 0 mm 4 mps 698 mmHg 75%
    03:00 +22°C° 0 mm 4 mps 698 mmHg 77%
    04:00 +21°C° 0 mm 4 mps 698 mmHg 78%
    05:00 +21°C° 0 mm 4 mps 699 mmHg 79%
    06:00 +21°C° 0 mm 4 mps 699 mmHg 80%
    07:00 +22°C° 0 mm 4 mps 699 mmHg 75%
    08:00 +23°C° 0 mm 5 mps 700 mmHg 69%
    09:00 +24°C° 0 mm 6 mps 701 mmHg 64%
    10:00 +26°C° 0 mm 6 mps 700 mmHg 59%
    11:00 +27°C° 0 mm 6 mps 700 mmHg 54%
    12:00 +28°C° 0 mm 6 mps 699 mmHg 50%
    13:00 +29°C° 0 mm 7 mps 699 mmHg 49%
    14:00 +29°C° 0 mm 7 mps 698 mmHg 48%
    15:00 +29°C° 0 mm 7 mps 698 mmHg 47%
    16:00 +28°C° 0 mm 7 mps 698 mmHg 52%
    17:00 +27°C° 0 mm 7 mps 698 mmHg 57%
    18:00 +26°C° 0 mm 7 mps 698 mmHg 63%
    19:00 +24°C° 0 mm 7 mps 699 mmHg 66%
    20:00 +24°C° 0 mm 6 mps 699 mmHg 69%
    21:00 +23°C° 0 mm 6 mps 699 mmHg 73%
    22:00 +23°C° 0 mm 5 mps 699 mmHg 73%
    23:00 +23°C° 0 mm 5 mps 699 mmHg 74%
    Show more